Weather History for Frankfurt / M-Flughafen, Germany

Change the Weather History Date:

Friday, July 12, 2013

  Actual Average Record
Temperature  
Mean Temperature 64 °F -  
Max Temperature 76 °F 75 °F - ()
Min Temperature 52 °F 56 °F - ()
Degree Days  
Heating Degree Days 1    
Growing Degree Days 14 (Base 50)    
Moisture  
Dew Point 49 °F    
Average Humidity 56    
Maximum Humidity 88    
Minimum Humidity 25    
Precipitation  
Precipitation 0.00 in - - ()
Sea Level Pressure  
Sea Level Pressure 30.15 in    
Wind  
Wind Speed 6 mph ()    
Max Wind Speed 12 mph    
Max Gust Speed -    
Visibility 10.9 miles    
Events      
T = Trace of Precipitation, MM = Missing Value Source: Averaged Metar Reports

Daily Weather History Graph

Daily Weather History Graph

Search for Another Location

Airport:

Trip Planner

Search our weather history database for the weather conditions in past years. The results will help you decide how hot, cold, wet, or windy it might be!

Date:

Astronomy

Jul. 12, 2013 Rise Set
Actual Time 5:29 AM CEST 9:32 PM CEST
Civil Twilight 4:47 AM CEST 10:14 PM CEST
Nautical Twilight 3:46 AM CEST 11:14 PM CEST
Astronomical Twilight 2:03 AM CEST 1:12 AM CEST
Moon 10:00 AM CEST (7/12) 11:01 PM CEST (7/12)
Length of Visible Light 17h 27m
Length of Day
16h 02m
Waxing Crescent, 15% of the Moon is Illuminated
Jul 12
Waxing Crescent
Jul 16
First Quarter
Jul 22
Full
Jul 29
Last Quarter
Aug 6
New

Hourly Weather History & Observations

Time (CEST) Temp. Dew Point Humidity Pressure Visibility Wind Dir Wind Speed Gust Speed Precip Events Conditions
12:00 AM 61 °F 50 °F 59% 30.16 in 31 mi NNE 4.5 mph - -   Scattered Clouds
12:20 AM 60.8 °F 50.0 °F 68% 30.15 in - NNE 11.5 mph - N/A   Clear
12:50 AM 60.8 °F 50.0 °F 68% 30.15 in - NNE 9.2 mph - N/A   Clear
1:00 AM 60 °F 50 °F 62% 30.17 in 25 mi NNE 4.5 mph - -   Scattered Clouds
1:20 AM 59.0 °F 50.0 °F 72% 30.15 in - NE 6.9 mph - N/A   Clear
1:50 AM 57.2 °F 50.0 °F 77% 30.15 in - NNE 5.8 mph - N/A   Clear
2:00 AM 57 °F 50 °F 70% 30.18 in 25 mi NNE 4.5 mph - -  
2:20 AM 55.4 °F 50.0 °F 82% 30.15 in - NNE 5.8 mph - N/A   Clear
2:50 AM 55.4 °F 50.0 °F 82% 30.15 in - NNE 5.8 mph - N/A   Clear
3:00 AM 55 °F 49 °F 76% 30.18 in 25 mi NE 4.5 mph - -  
3:20 AM 53.6 °F 50.0 °F 88% 30.15 in - NNE 6.9 mph - N/A   Clear
3:50 AM 53.6 °F 50.0 °F 88% 30.15 in - NNE 5.8 mph - N/A   Clear
4:20 AM 51.8 °F 48.2 °F 88% 30.15 in - NE 4.6 mph - N/A   Clear
4:50 AM 53.6 °F 50.0 °F 88% 30.15 in - North 8.1 mph - N/A   Clear
5:20 AM 53.6 °F 50.0 °F 88% 30.15 in - NNE 9.2 mph - N/A   Clear
5:50 AM 53.6 °F 50.0 °F 88% 30.15 in - NNE 8.1 mph - N/A   Clear
6:00 AM 54 °F 49 °F 77% 30.18 in 19 mi NE 4.5 mph - -   Scattered Clouds
6:20 AM 55.4 °F 50.0 °F 82% 30.15 in - NE 8.1 mph - N/A   Clear
6:50 AM 57.2 °F 51.8 °F 82% 30.15 in - NNE 6.9 mph - N/A   Clear
7:00 AM 56 °F 50 °F 75% 30.17 in 19 mi NE 4.5 mph - -   Clear
7:20 AM 59.0 °F 51.8 °F 77% 30.15 in - NNE 9.2 mph - N/A   Clear
7:50 AM 60.8 °F 51.8 °F 72% 30.15 in - NNE 8.1 mph - N/A   Clear
8:00 AM 60 °F 51 °F 65% 30.18 in 19 mi NE 6.7 mph - -  
8:20 AM 60.8 °F 51.8 °F 72% 30.18 in - NNE 9.2 mph - N/A   Clear
8:50 AM 60.8 °F 50.0 °F 68% 30.18 in - NNE 9.2 mph - N/A   Clear
9:00 AM 62 °F 51 °F 58% 30.18 in 19 mi NE 6.7 mph - -  
9:20 AM 62.6 °F 51.8 °F 68% 30.18 in 6.2 mi NNE 6.9 mph - N/A   Partly Cloudy
9:50 AM 64.4 °F 53.6 °F 68% 30.18 in 6.2 mi ENE 6.9 mph - N/A   Partly Cloudy
10:00 AM 65 °F 53 °F 56% 30.19 in 22 mi NNE 6.7 mph - -   Scattered Clouds
10:20 AM 66.2 °F 53.6 °F 64% 30.18 in 6.2 mi East 6.9 mph - N/A   Partly Cloudy
10:50 AM 68.0 °F 51.8 °F 56% 30.15 in 6.2 mi East 5.8 mph - N/A   Partly Cloudy
11:20 AM 69.8 °F 50.0 °F 49% 30.15 in 6.2 mi Variable 3.5 mph - N/A   Partly Cloudy
11:50 AM 69.8 °F 50.0 °F 49% 30.15 in 6.2 mi Variable 4.6 mph - N/A   Scattered Clouds
12:00 PM 70 °F 51 °F 40% 30.16 in 25 mi NE 4.5 mph - -   Partly Cloudy
12:20 PM 71.6 °F 50.0 °F 46% 30.15 in 6.2 mi NE 4.6 mph - N/A   Scattered Clouds
12:50 PM 69.8 °F 46.4 °F 43% 30.15 in - North 5.8 mph - N/A   Clear
1:00 PM 70 °F 47 °F 33% 30.16 in 25 mi NNW 6.7 mph - -   Partly Cloudy
1:20 PM 71.6 °F 48.2 °F 43% 30.15 in - Variable 3.5 mph - N/A   Clear
1:50 PM 73.4 °F 46.4 °F 38% 30.15 in - NW 4.6 mph - N/A   Clear
2:00 PM 72 °F 47 °F 30% 30.16 in 25 mi NNW 6.7 mph - -   Partly Cloudy
2:20 PM 71.6 °F 44.6 °F 38% 30.15 in - Variable 2.3 mph - N/A   Clear
2:50 PM 71.6 °F 44.6 °F 38% 30.15 in - NNW 5.8 mph - N/A   Clear
3:00 PM 73 °F 45 °F 26% 30.15 in 25 mi NE 4.5 mph - -   Mostly Cloudy
3:20 PM 73.4 °F 46.4 °F 38% 30.15 in - Variable 2.3 mph - N/A   Clear
3:50 PM 73.4 °F 46.4 °F 38% 30.12 in - North 5.8 mph - N/A   Clear
4:00 PM 74 °F 47 °F 27% 30.13 in 25 mi North 6.7 mph - -   Partly Cloudy
4:20 PM 75.2 °F 48.2 °F 38% 30.12 in - North 4.6 mph - N/A   Clear
4:50 PM 73.4 °F 46.4 °F 38% 30.12 in - NNW 4.6 mph - N/A   Clear
5:20 PM 75.2 °F 46.4 °F 36% 30.12 in - North 5.8 mph - N/A   Clear
5:50 PM 75.2 °F 46.4 °F 36% 30.12 in - NNE 4.6 mph - N/A   Clear
6:00 PM 74 °F 47 °F 27% 30.12 in 31 mi NW 4.5 mph - -   Partly Cloudy
6:20 PM 75.2 °F 46.4 °F 36% 30.12 in - North 4.6 mph - N/A   Clear
6:50 PM 75.2 °F 48.2 °F 38% 30.12 in - NW 6.9 mph - N/A   Clear
7:00 PM 75 °F 46 °F 25% 30.11 in 31 mi East 4.5 mph - -   Partly Cloudy
7:20 PM 73.4 °F 46.4 °F 38% 30.09 in - WNW 3.5 mph - N/A   Clear
7:50 PM 73.4 °F 46.4 °F 38% 30.12 in - North 6.9 mph - N/A   Clear
8:00 PM 73 °F 47 °F 29% 30.11 in 31 mi NNW 4.5 mph - -   Scattered Clouds
8:20 PM 73.4 °F 46.4 °F 38% 30.12 in - North 6.9 mph - N/A   Clear
8:50 PM 71.6 °F 48.2 °F 43% 30.12 in - NNW 5.8 mph - N/A   Clear
9:00 PM 72 °F 49 °F 34% 30.12 in 31 mi ENE 2.2 mph - -   Scattered Clouds
9:20 PM 69.8 °F 50.0 °F 49% 30.12 in - NW 11.5 mph - N/A   Clear
9:50 PM 68.0 °F 51.8 °F 56% 30.12 in - NNW 8.1 mph - N/A   Clear
10:20 PM 68.0 °F 51.8 °F 56% 30.12 in - NNW 10.4 mph - N/A   Clear
10:50 PM 66.2 °F 51.8 °F 60% 30.15 in - NNW 10.4 mph - N/A   Clear
11:20 PM 66.2 °F 51.8 °F 60% 30.15 in - NNW 11.5 mph - N/A   Clear
11:50 PM 64.4 °F 51.8 °F 64% 30.15 in - NNW 9.2 mph - N/A   Clear